| time (UTC) | temp C | wind direction | speed KPH | gust KPH | rain 1hr cm | rain 24hr cm | rain mn cm | humidity % | barometer mb |
| 20260507133022 | 12 | 71 | 0.0 | 1.6 | 0.00 | 0.00 | 0.00 | 88 | 1017.0 |
| 20260507131511 | 12 | 63 | 0.0 | 3.2 | 0.00 | 0.00 | 0.00 | 88 | 1016.9 |
| 20260507130010 | 11 | 60 | 0.0 | 3.2 | 0.00 | 0.00 | 0.00 | 88 | 1016.8 |
| 20260507124519 | 11 | 63 | 3.2 | 3.2 | 0.00 | 0.00 | 0.00 | 88 | 1016.8 |
| 20260507123020 | 11 | 78 | 1.6 | 4.8 | 0.00 | 0.00 | 0.00 | 87 | 1016.7 |
| 20260507121522 | 11 | 58 | 0.0 | 4.8 | 0.00 | 0.00 | 0.00 | 87 | 1016.8 |
| 20260507120029 | 11 | 74 | 1.6 | 4.8 | 0.00 | 0.00 | 0.00 | 87 | 1016.9 |
| 20260507114512 | 11 | 76 | 0.0 | 3.2 | 0.00 | 0.00 | 0.00 | 86 | 1016.9 |
| 20260507113035 | 12 | 58 | 0.0 | 3.2 | 0.00 | 0.00 | 0.00 | 86 | 1016.9 |
| 20260507111524 | 12 | 59 | 4.8 | 6.4 | 0.00 | 0.00 | 0.00 | 86 | 1017.1 |
| 20260507110011 | 11 | 82 | 3.2 | 4.8 | 0.00 | 0.00 | 0.00 | 85 | 1017.1 |
| 20260507104516 | 12 | 43 | 0.0 | 3.2 | 0.00 | 0.00 | 0.00 | 86 | 1017.0 |
| 20260507103017 | 12 | 79 | 3.2 | 4.8 | 0.00 | 0.00 | 0.00 | 85 | 1017.1 |
| 20260507101522 | 12 | 75 | 1.6 | 3.2 | 0.00 | 0.00 | 0.00 | 85 | 1017.2 |
| 20260507100035 | 12 | 79 | 1.6 | 3.2 | 0.00 | 0.00 | 0.00 | 85 | 1017.1 |
| 20260507094510 | 12 | 70 | 1.6 | 4.8 | 0.00 | 0.00 | 0.00 | 84 | 1017.3 |
| 20260507093016 | 12 | 57 | 3.2 | 4.8 | 0.00 | 0.00 | 0.00 | 85 | 1017.5 |
| 20260507091525 | 12 | 47 | 0.0 | 4.8 | 0.00 | 0.00 | 0.00 | 84 | 1017.7 |
| 20260507090024 | 12 | 67 | 1.6 | 3.2 | 0.00 | 0.00 | 0.00 | 84 | 1017.9 |
| 20260507084528 | 12 | 61 | 0.0 | 3.2 | 0.00 | 0.00 | 0.00 | 82 | 1018.1 |
| 20260507083012 | 12 | 72 | 3.2 | 4.8 | 0.00 | 0.00 | 0.00 | 82 | 1018.1 |
| 20260507081518 | 13 | 70 | 3.2 | 3.2 | 0.00 | 0.00 | 0.00 | 82 | 1018.1 |
| 20260507080023 | 13 | 9 | 0.0 | 3.2 | 0.00 | 0.00 | 0.00 | 83 | 1018.2 |
| 20260507074530 | 13 | 360 | 1.6 | 3.2 | 0.00 | 0.00 | 0.00 | 83 | 1018.2 |
| 20260507073025 | 13 | 57 | 0.0 | 1.6 | 0.00 | 0.00 | 0.00 | 82 | 1018.1 |
| 20260507071512 | 13 | 57 | 0.0 | 0.0 | 0.00 | 0.00 | 0.00 | 82 | 1018.2 |
| 20260507070020 | 13 | 24 | 0.0 | 3.2 | 0.00 | 0.00 | 0.00 | 81 | 1018.4 |
| 20260507064523 | 13 | 352 | 0.0 | 3.2 | 0.00 | 0.00 | 0.00 | 80 | 1018.4 |
| 20260507063027 | 13 | 340 | 0.0 | 3.2 | 0.00 | 0.00 | 0.00 | 81 | 1018.4 |
| 20260507061533 | 13 | 321 | 0.0 | 0.0 | 0.00 | 0.00 | 0.00 | 82 | 1018.3 |
| 20260507060018 | 13 | 53 | 0.0 | 1.6 | 0.00 | 0.00 | 0.00 | 83 | 1018.5 |
| 20260507054522 | 13 | 74 | 0.0 | 3.2 | 0.00 | 0.00 | 0.00 | 80 | 1018.5 |
| 20260507053031 | 13 | 74 | 0.0 | 3.2 | 0.00 | 0.00 | 0.00 | 80 | 1018.5 |
| 20260507051525 | 14 | 73 | 0.0 | 3.2 | 0.00 | 0.00 | 0.00 | 80 | 1018.3 |
| 20260507050014 | 14 | 59 | 3.2 | 4.8 | 0.00 | 0.00 | 0.00 | 79 | 1018.3 |
| 20260507044522 | 14 | 56 | 0.0 | 4.8 | 0.00 | 0.00 | 0.00 | 80 | 1018.4 |
| 20260507043030 | 15 | 55 | 3.2 | 4.8 | 0.00 | 0.00 | 0.00 | 78 | 1018.4 |
| 20260507041531 | 15 | 61 | 0.0 | 3.2 | 0.00 | 0.00 | 0.00 | 78 | 1018.3 |
| 20260507040027 | 15 | 59 | 3.2 | 4.8 | 0.00 | 0.00 | 0.00 | 77 | 1018.2 |
| 20260507034516 | 15 | 329 | 0.0 | 3.2 | 0.00 | 0.00 | 0.00 | 75 | 1018.1 |
| 20260507033024 | 16 | 229 | 0.0 | 3.2 | 0.00 | 0.00 | 0.00 | 74 | 1017.9 |
| 20260507031523 | 16 | 174 | 0.0 | 3.2 | 0.00 | 0.00 | 0.00 | 73 | 1017.9 |
| 20260507030029 | 17 | 173 | 0.0 | 3.2 | 0.00 | 0.00 | 0.00 | 71 | 1017.7 |
| 20260507024531 | 17 | 186 | 0.0 | 3.2 | 0.00 | 0.00 | 0.00 | 70 | 1017.4 |
| 20260507023020 | 18 | 166 | 0.0 | 4.8 | 0.00 | 0.00 | 0.00 | 67 | 1017.3 |
| 20260507021524 | 19 | 189 | 0.0 | 4.8 | 0.00 | 0.00 | 0.00 | 63 | 1017.3 |
| 20260507020031 | 20 | 226 | 3.2 | 6.4 | 0.00 | 0.00 | 0.00 | 62 | 1017.1 |
| 20260507014527 | 20 | 248 | 4.8 | 11.3 | 0.00 | 0.00 | 0.00 | 61 | 1017.1 |
| 20260507013031 | 20 | 243 | 4.8 | 11.3 | 0.00 | 0.00 | 0.00 | 58 | 1017.1 |
| 20260507011524 | 21 | 189 | 3.2 | 6.4 | 0.00 | 0.00 | 0.00 | 58 | 1016.8 |
| 20260507010024 | 21 | 221 | 3.2 | 9.7 | 0.00 | 0.00 | 0.00 | 57 | 1017.0 |
| 20260507004515 | 21 | 227 | 1.6 | 6.4 | 0.00 | 0.00 | 0.00 | 55 | 1016.9 |
| 20260507003019 | 21 | 229 | 3.2 | 16.1 | 0.00 | 0.00 | 0.00 | 57 | 1016.8 |
| 20260507001523 | 22 | 260 | 8.0 | 17.7 | 0.00 | 0.00 | 0.00 | 55 | 1016.7 |
| 20260507000008 | 22 | 265 | 3.2 | 19.3 | 0.00 | 0.00 | 0.00 | 52 | 1016.7 |
| 20260506234529 | 22 | 244 | 9.7 | 17.7 | 0.00 | 0.00 | 0.00 | 48 | 1016.6 |
| 20260506233019 | 22 | 209 | 4.8 | 20.9 | 0.00 | 0.00 | 0.00 | 49 | 1016.6 |
| 20260506231524 | 22 | 218 | 8.0 | 16.1 | 0.00 | 0.00 | 0.00 | 47 | 1016.7 |
| 20260506230027 | 22 | 277 | 11.3 | 17.7 | 0.00 | 0.00 | 0.00 | 46 | 1016.8 |
| 20260506224522 | 22 | 127 | 6.4 | 14.5 | 0.00 | 0.00 | 0.00 | 47 | 1017.0 |
| 20260506223013 | 22 | 303 | 4.8 | 12.9 | 0.00 | 0.00 | 0.00 | 47 | 1017.0 |
| 20260506221520 | 22 | 207 | 4.8 | 16.1 | 0.00 | 0.00 | 0.00 | 48 | 1017.2 |
| 20260506220033 | 22 | 269 | 9.7 | 19.3 | 0.00 | 0.00 | 0.00 | 49 | 1017.3 |
| 20260506214524 | 22 | 261 | 11.3 | 16.1 | 0.00 | 0.00 | 0.00 | 51 | 1017.4 |
| 20260506213011 | 22 | 222 | 4.8 | 20.9 | 0.00 | 0.00 | 0.00 | 52 | 1017.5 |
| 20260506211520 | 21 | 244 | 6.4 | 20.9 | 0.00 | 0.00 | 0.00 | 53 | 1017.7 |
| 20260506210021 | 22 | 281 | 4.8 | 16.1 | 0.00 | 0.00 | 0.00 | 54 | 1017.8 |
| 20260506204525 | 21 | 200 | 9.7 | 20.9 | 0.00 | 0.00 | 0.00 | 54 | 1017.9 |
| 20260506203015 | 22 | 246 | 4.8 | 24.1 | 0.00 | 0.00 | 0.00 | 55 | 1018.0 |
| 20260506201515 | 21 | 284 | 6.4 | 20.9 | 0.00 | 0.00 | 0.00 | 56 | 1018.2 |
| 20260506200019 | 21 | 255 | 4.8 | 19.3 | 0.00 | 0.00 | 0.00 | 57 | 1018.3 |
| 20260506194531 | 21 | 244 | 8.0 | 20.9 | 0.00 | 0.00 | 0.00 | 56 | 1018.4 |
| 20260506193024 | 21 | 276 | 11.3 | 19.3 | 0.00 | 0.00 | 0.00 | 55 | 1018.5 |
| 20260506191518 | 21 | 238 | 9.7 | 17.7 | 0.00 | 0.00 | 0.00 | 56 | 1018.8 |
| 20260506190020 | 20 | 224 | 3.2 | 20.9 | 0.00 | 0.00 | 0.00 | 59 | 1018.8 |
| 20260506184528 | 21 | 256 | 11.3 | 19.3 | 0.00 | 0.00 | 0.00 | 57 | 1019.0 |
| 20260506183023 | 20 | 284 | 9.7 | 17.7 | 0.00 | 0.00 | 0.00 | 52 | 1019.1 |
| 20260506181526 | 20 | 251 | 4.8 | 16.1 | 0.00 | 0.00 | 0.00 | 51 | 1019.2 |
| 20260506180021 | 20 | 249 | 12.9 | 17.7 | 0.00 | 0.00 | 0.00 | 49 | 1019.2 |
| 20260506174519 | 19 | 203 | 4.8 | 9.7 | 0.00 | 0.00 | 0.00 | 54 | 1019.2 |
| 20260506173024 | 19 | 281 | 3.2 | 12.9 | 0.00 | 0.00 | 0.00 | 56 | 1019.3 |
| 20260506171526 | 18 | 160 | 4.8 | 12.9 | 0.00 | 0.00 | 0.00 | 59 | 1019.2 |
| 20260506170018 | 18 | 140 | 4.8 | 9.7 | 0.00 | 0.00 | 0.00 | 62 | 1019.4 |
| 20260506164523 | 17 | 138 | 3.2 | 12.9 | 0.00 | 0.00 | 0.00 | 65 | 1019.3 |
| 20260506163026 | 17 | 234 | 1.6 | 6.4 | 0.00 | 0.00 | 0.00 | 67 | 1019.4 |
| 20260506161528 | 16 | 163 | 8.0 | 14.5 | 0.00 | 0.00 | 0.00 | 70 | 1019.4 |
| 20260506160026 | 16 | 165 | 1.6 | 9.7 | 0.00 | 0.00 | 0.00 | 70 | 1019.5 |
| 20260506154524 | 16 | 222 | 3.2 | 9.7 | 0.00 | 0.00 | 0.00 | 71 | 1019.4 |
| 20260506151526 | 16 | 217 | 1.6 | 9.7 | 0.00 | 0.00 | 0.00 | 73 | 1019.4 |
| 20260506150011 | 15 | 136 | 3.2 | 8.0 | 0.00 | 0.00 | 0.00 | 74 | 1019.3 |
| 20260506144517 | 15 | 169 | 1.6 | 3.2 | 0.00 | 0.00 | 0.00 | 76 | 1019.4 |
| 20260506143024 | 15 | 88 | 0.0 | 3.2 | 0.00 | 0.00 | 0.00 | 77 | 1019.3 |
| 20260506140009 | 11 | 59 | 0.0 | 0.0 | 0.00 | 0.00 | 0.00 | 85 | 1019.3 |
| 20260506134522 | 10 | 59 | 0.0 | 0.0 | 0.00 | 0.00 | 0.00 | 1019.2 |